125P/Spacewatch (1996)

Japanese version
Home page
Updated on July 18, 2024

---------------------------------------------------------------------

* Profile

Designation 125P/1996 F1
Recovery Date March 21, 1996
Magnitude 17.6 mag
Recoverer J. V. Scotti (Kitt Peak), J. Montani (Kitt Peak)

* Orbital Elements

   The following improved orbital elements by Kenji Muraoka, are 
  from 158 observations 1991 Sept. 8 to 1996 Sept. 2, perturbations
  by 9 Planets, Moon and 5 minor planets were taken into account. 
   The mean residual is +/- 0.63 arc seconds.

      Epoch  =  1996 July 16.0  TT       JDT = 2450280.5
          T  =  1996 July 14.58862       +/- 0.00112 (m.e.) TT
       Peri. =   87.27094                +/- 0.00019
       Node  =  153.36897                +/- 0.00009   (2000.0)
       Incl. =    9.96899                +/- 0.00002
          q  =    1.5399039              +/- 0.0000015 AU
          e  =    0.5090900              +/- 0.0000003
          a  =    3.1368353              +/- 0.0000012 AU
          n  =    0.17740527             +/- 0.00000010
          P  =    5.556                  +/- 0.0000031  years

* Finding Charts

* 1996 Feb. 27 - 1996 Dec. 23

* Magnitudes Graph

        m1 = 9.5 + 5 log d + 20.0 log r(t - 100)  [   ,-30]  (             - 1996 June 14)
        m1 = 7.3 + 5 log d + 40   log r(t - 10)   [-30, 40]  (1996 June 14 - 1996 Aug. 23)
        m1 = 9.0 + 5 log d + 20.0 log r(t + 100)  [ 40,   ]  (1996 Aug. 23 -             )

---------------------------------------------------------------------

The orbital elements are calculated by Kenji Muraoka.
The charts are made with StellaNavigator Ver.2.0 for Windows (AstroArts / ASCII).
The magnitudes graphs are made with Comet for Windows.

---------------------------------------------------------------------

Copyright(C) Seiichi Yoshida (comet@aerith.net). All rights reserved.